Regional Weather Roundup
Issued by NWS Little Rock, AR

Home | Current Version | Previous Version | Graphics & Text | Print | Product List | Glossary On
Versions: 1 2 3 4 5 6 7 8 9 10 11 12 13 14 15 16 17 18 19 20 21 22 23 24 25 26 27 28 29 30 31 32 33 34 35 36 37 38 39 40 41 42 43 44 45 46 47 48 49 50
472
ASUS44 KLZK 280612
RWRLZK

WEATHER ROUNDUP FOR ARKANSAS
NATIONAL WEATHER SERVICE LITTLE ROCK AR
100 AM CDT SUN MAY 28 2017

NOTE: "FAIR" INDICATES FEW OR NO CLOUDS BELOW 12,000 FEET WITH NO
SIGNIFICANT WEATHER AND/OR OBSTRUCTIONS TO VISIBILITY.

ARZ001-003-010-029-280700-
NORTHWEST ARKANSAS

CITY           SKY/WX    TMP DP  RH WIND       PRES   REMARKS
FAYETTEVILLE   CLOUDY    66  66 100 CALM      29.82F
6HR MIN TEMP:  64; 6HR MAX TEMP:  83; 6HR PCP:  1.20;

FORT SMITH     CLOUDY    68  62  81 E10       29.78F
6HR MIN TEMP:  68; 6HR MAX TEMP:  89; 6HR PCP:  0.10;

HARRISON       CLOUDY    64  64 100 CALM      29.82F
6HR MIN TEMP:  62; 6HR MAX TEMP:  81; 6HR PCP:  0.50;

BENTONVILLE    CLOUDY    64  63  94 N6        29.85R
6HR MIN TEMP:  64; 6HR MAX TEMP:  82; 6HR PCP:  0.66;

ROGERS         CLOUDY    64  63  96 N5        29.86R
6HR MIN TEMP:  64; 6HR MAX TEMP:  83; 6HR PCP:  0.21;

SILOAM SPGS    CLOUDY    66  61  82 NW3       29.81F
6HR MIN TEMP:  64; 6HR MAX TEMP:  82; 6HR PCP:  1.36;

HIGHFILL       CLOUDY    66  65  96 NW5       29.84S
6HR MIN TEMP:  65; 6HR MAX TEMP:  83; 6HR PCP:  0.96;

$$

ARZ004-005-016-280700-
NORTH CENTRAL ARKANSAS

CITY           SKY/WX    TMP DP  RH WIND       PRES   REMARKS
BATESVILLE     CLOUDY    63  63 100 NE6       29.93F
6HR MIN TEMP:  63; 6HR MAX TEMP:  86; 6HR PCP:  1.38;

FLIPPIN        CLOUDY    64  57  77 SE7       29.79F
6HR MIN TEMP:  64; 6HR MAX TEMP:  84; 6HR PCP:  1.01;

MTN HOME       RAIN      63  62  97 E10G16    29.82F
6HR MIN TEMP:  63; 6HR MAX TEMP:  82; 6HR PCP:  0.66;

$$

ARZ040-041-280700-
WEST CENTRAL ARKANSAS

CITY           SKY/WX    TMP DP  RH WIND       PRES   REMARKS
MENA           CLOUDY    82  81  94 SW6       29.81F THUNDER HX  95
MOUNT IDA      CLOUDY    82  74  76 VRB3      29.78F HX  88
6HR MIN TEMP:  80; 6HR MAX TEMP:  85;

$$

ARZ009-017-025-026-028-280700-
NORTHEAST ARKANSAS

CITY           SKY/WX    TMP DP  RH WIND       PRES   REMARKS
JONESBORO      TSTM      64  62  93 E9        29.94R
6HR MIN TEMP:  63; 6HR MAX TEMP:  86; 6HR PCP:  0.38;

NEWPORT        LGT RAIN  63  62  97 NE12      29.94F
6HR MIN TEMP:  63; 6HR MAX TEMP:  87; 6HR PCP:  1.00;

WALNUT RIDGE   CLOUDY    63  59  88 S6        29.95R
6HR MIN TEMP:  63; 6HR MAX TEMP:  84; 6HR PCP:  1.16;

BLYTHEVILLE    LGT RAIN  66  64  93 SE6       29.95R
6HR MIN TEMP:  63; 6HR MAX TEMP:  85; 6HR PCP:  0.77;

$$

ARZ022-023-033-042-044-280700-
CENTRAL ARKANSAS

CITY           SKY/WX    TMP DP  RH WIND       PRES   REMARKS
LITTLE ROCK    CLOUDY    72  67  84 NE23G38   29.87R
6HR MIN TEMP:  78; 6HR MAX TEMP:  86;

N LITTLE ROCK    N/A     72  64  78 E6        29.84S
6HR MIN TEMP:  72; 6HR MAX TEMP:  85;

JACKSONVILLE   TSTM      68  64  88 NE22G33   29.85S
6HR MIN TEMP:  70; 6HR MAX TEMP:  87; 6HR PCP: TRACE;

CONWAY           N/A     73  64  73 NE15G28   29.82R
SEARCY         TSTM      65  65 100 N10G17    29.97R
6HR MIN TEMP:  65; 6HR MAX TEMP:  86; 6HR PCP:  0.47;

HOT SPRINGS    LGT RAIN  81  76  84 S7        29.81F HX  87
6HR MIN TEMP:  81; 6HR MAX TEMP:  87; 6HR PCP:  0.01;

RUSSELLVILLE   CLOUDY    73  63  70 N26G46    29.88R THUNDER HAZE
6HR MIN TEMP:  75; 6HR MAX TEMP:  87;

CLINTON        CLOUDY    66  63  88 CALM      29.82F THUNDER
$$

ARZ036-280700-
EAST ARKANSAS

CITY           SKY/WX    TMP DP  RH WIND       PRES   REMARKS
WEST MEMPHIS   TSTM      65  65 100 E9        29.93R
6HR MIN TEMP:  63; 6HR MAX TEMP:  85; 6HR PCP:  0.25;

$$

ARZ050-053-066-070-073-280700-
SOUTHWEST ARKANSAS

CITY           SKY/WX    TMP DP  RH WIND       PRES   REMARKS
ARKADELPHIA    LGT RAIN  79  75  89 S7        29.81F
6HR MIN TEMP:  78; 6HR MAX TEMP:  86; 6HR PCP: TRACE;

CAMDEN         MOCLDY    77  72  83 S6        29.83F
TEXARKANA      CLOUDY    78  75  90 S7        29.81F
6HR MIN TEMP:  78; 6HR MAX TEMP:  84;

EL DORADO      PTCLDY    76  73  91 S7        29.85S
6HR MIN TEMP:  76; 6HR MAX TEMP:  86;

DE QUEEN       CLOUDY    80  78  94 CALM      29.79R FOG     HX  88
6HR MIN TEMP:  79; 6HR MAX TEMP:  84;

$$

ARZ056-057-069-280700-
SOUTHEAST ARKANSAS

CITY           SKY/WX    TMP DP  RH WIND       PRES   REMARKS
PINE BLUFF     CLOUDY    78  74  87 S10       29.82F
6HR MIN TEMP:  78; 6HR MAX TEMP:  85;

STUTTGART      CLOUDY    72  55  56 NE21G32   29.89R THUNDER
6HR MIN TEMP:  72; 6HR MAX TEMP:  88;

MONTICELLO     PTCLDY    77  73  87 S6        29.85S
6HR MIN TEMP:  77; 6HR MAX TEMP:  87;


$$






USA.gov is the U.S. government's official web portal to all federal, state and local government web resources and services.